This is the latest recevied weather packets stored in our database for station/object KB2KMM. If no packets are shown the sender has not sent any weather packets the latest 10 day(s).
| Time | Temp. | Humidity | Pressure | Rain* | Wind** | Luminosity | Snow |
|---|---|---|---|---|---|---|---|
| 1777186806 | 4.44° C | 100% | 1017.1 hPa | 0.51 mm | - | - | - |
| 1777186506 | 4.44° C | 100% | 1017.1 hPa | 0.51 mm | - | - | - |
| 1777186207 | 4.44° C | 100% | 1017.2 hPa | 0.76 mm | - | - | - |
| 1777185905 | 4.44° C | 100% | 1017.2 hPa | 1.02 mm | - | - | - |
| 1777185608 | 4.44° C | 100% | 1017.2 hPa | 1.27 mm | - | - | - |
| 1777185306 | 4.44° C | 100% | 1017.1 hPa | 1.27 mm | - | - | - |
| 1777185009 | 4.44° C | 100% | 1017.2 hPa | 1.52 mm | - | - | - |
| 1777184705 | 4.44° C | 100% | 1017.3 hPa | 1.27 mm | - | - | - |
| 1777184408 | 4.44° C | 100% | 1017.5 hPa | 1.52 mm | - | - | - |
| 1777184106 | 4.44° C | 100% | 1017.4 hPa | 1.52 mm | - | - | - |
| 1777183808 | 4.44° C | 100% | 1017.4 hPa | 1.78 mm | - | - | - |
| 1777183506 | 4.44° C | 100% | 1017.5 hPa | 2.03 mm | - | - | - |
| 1777183205 | 4.44° C | 100% | 1017.6 hPa | 2.03 mm | - | - | - |
| 1777182905 | 4.44° C | 100% | 1017.6 hPa | 2.29 mm | - | - | - |
| 1777182608 | 4.44° C | 100% | 1017.5 hPa | 2.54 mm | - | - | - |
| 1777182306 | 4.44° C | 100% | 1017.4 hPa | 2.54 mm | - | - | - |
| 1777182008 | 4.44° C | 100% | 1017.3 hPa | 2.79 mm | - | - | - |
| 1777181706 | 4.44° C | 100% | 1017.5 hPa | 3.05 mm | - | - | - |
| 1777181408 | 4.44° C | 100% | 1017.8 hPa | 3.3 mm | - | - | - |
| 1777181105 | 4.44° C | 100% | 1017.8 hPa | 3.56 mm | - | - | - |
| 1777180807 | 4.44° C | 100% | 1017.9 hPa | 3.56 mm | - | - | - |
| 1777180505 | 5° C | 100% | 1018.1 hPa | 3.81 mm | - | - | - |
| 1777180207 | 5° C | 100% | 1017.9 hPa | 3.56 mm | - | - | - |
| 1777179906 | 5° C | 100% | 1018 hPa | 3.56 mm | - | - | - |
| 1777179605 | 5° C | 100% | 1018 hPa | 3.56 mm | - | - | - |
* Rain latest hour (hover to see other rain measurements)
** Current wind speed in m/s (hover to see current wind gust speed)